Flag for U.S.A. Weather past 2 weeks in Lewiston, Idaho, U.S.A.

Now
59 °F

Clear.


Feels Like: 60 °F
Forecast: 53 / 81 °F
Wind: 3 mph from Southeast

Location: Lewiston-Nez Perce County Airport

Current Time: Jul 25, 2014 at 3:07:19 AM

Latest Report: Jul 25, 2014 at 1:56 AM


Visibility: 10 mi

Pressure: 30.07 "Hg

Humidity: 56%

Dew point: 43 °F

Location of LewistonLocation

Historic Weather in Lewiston — Graph

°F

Lewiston temperature yesterday

Maximum temperature yesterday: 77 °F (at 4:56 PM)
Minimum temperature yesterday: 56 °F (at 5:56 AM)
Average temperature yesterday: 67 °F

Past Weeks' High & Low Weather Summary

 TemperatureHumidityPressure
High103 °F (Jul 16, 3:56 PM)87% (Jul 23, 12:56 AM)30.15 "Hg (Jul 23, 12:56 AM)
Low56 °F (Jul 24, 5:56 AM)8% (Jul 10, 5:56 PM)29.68 "Hg (Jul 17, 4:56 PM)
Average80 °F35%29.90 "Hg
* Reported Jul 10 1:56 AM — Jul 25 1:56 AM, Lewiston, Weather by CustomWeather, © 2014

Note: Actual official high and low records may vary slightly from our data, if they occured in-between our weather recording intervals... More about our weather records

Advertising

Lewiston weather history for previous 24 hours

 ConditionsComfort  
Time TempWeatherWind HumidityBarometerVisibility
1:56 AM
Jul 25
59 °FClear.3 mph56%30.07 "Hg10 mi
12:56 AM61 °FClear.5 mph56%30.07 "Hg10 mi
11:56 PM
Jul 24
62 °FClear.3 mph50%30.07 "Hg10 mi
10:56 PM65 °FClear.No wind45%30.07 "Hg10 mi
9:56 PM67 °FClear.No wind41%30.07 "Hg10 mi
8:56 PM71 °FSunny.14 mph34%30.05 "Hg10 mi
7:56 PM73 °FSunny.10 mph32%30.04 "Hg10 mi
6:56 PM75 °FSunny.16 mph30%30.03 "Hg10 mi
5:56 PM76 °FSunny.16 mph29%30.05 "Hg10 mi
4:56 PM77 °FSunny.15 mph28%30.06 "Hg10 mi
3:56 PM76 °FPassing clouds.13 mph27%30.08 "Hg10 mi
2:56 PM76 °FScattered clouds.12 mph26%30.09 "Hg10 mi
1:56 PM75 °FSunny.9 mph27%30.11 "Hg10 mi
12:56 PM73 °FPassing clouds.8 mph30%30.10 "Hg10 mi
11:56 AM70 °FPartly sunny.7 mph34%30.12 "Hg10 mi
10:56 AM69 °FScattered clouds.9 mph35%30.14 "Hg10 mi
9:56 AM66 °FSunny.3 mph39%30.15 "Hg10 mi
8:56 AM65 °FPartly sunny.7 mph42%30.15 "Hg10 mi
7:56 AM62 °FSunny.5 mph46%30.14 "Hg10 mi
6:56 AM60 °FSunny.No wind49%30.14 "Hg10 mi
5:56 AM56 °FClear.7 mph60%30.12 "Hg10 mi
4:56 AM58 °FPassing clouds.7 mph58%30.11 "Hg10 mi
3:56 AM60 °FPassing clouds.7 mph53%30.08 "Hg10 mi
Weather by CustomWeather, © 2014

See weather overviewHow to use our weather pages